This is the latest recevied weather packets stored in our database for station/object KD2DXJ. If no packets are shown the sender has not sent any weather packets the latest 10 day(s).
| Time | Temp. | Humidity | Pressure | Rain* | Wind** | Luminosity | Snow |
|---|---|---|---|---|---|---|---|
| 1777855667 | 9.44° C | 46% | 1007.6 hPa | 0 mm | - | 0 W/m² | - |
| 1777855365 | 9.44° C | 44% | 1007.7 hPa | 0 mm | - | 0 W/m² | - |
| 1777855060 | 9.44° C | 45% | 1007.9 hPa | 0 mm | - | 0 W/m² | - |
| 1777854758 | 9.44° C | 45% | 1007.7 hPa | 0 mm | - | 0 W/m² | - |
| 1777854454 | 9.44° C | 45% | 1007.7 hPa | 0 mm | - | 0 W/m² | - |
| 1777854151 | 9.44° C | 45% | 1007.6 hPa | 0 mm | - | 0 W/m² | - |
| 1777853849 | 9.44° C | 45% | 1007.6 hPa | 0 mm | - | 0 W/m² | - |
| 1777853546 | 9.44° C | 45% | 1007.9 hPa | 0 mm | - | 1 W/m² | - |
| 1777853242 | 9.44° C | 45% | 1007.7 hPa | 0 mm | - | 1 W/m² | - |
| 1777852939 | 10° C | 45% | 1007.6 hPa | 0 mm | - | 2 W/m² | - |
| 1777852638 | 10° C | 44% | 1007.9 hPa | 0 mm | - | 3 W/m² | - |
| 1777852334 | 9.44° C | 44% | 1007.8 hPa | 0 mm | - | 3 W/m² | - |
| 1777852032 | 10° C | 45% | 1007.7 hPa | 0 mm | - | 5 W/m² | - |
| 1777851730 | 10° C | 44% | 1007.7 hPa | 0 mm | - | 9 W/m² | - |
| 1777851427 | 10° C | 44% | 1007.9 hPa | 0 mm | - | 10 W/m² | - |
| 1777851123 | 10° C | 45% | 1007.8 hPa | 0 mm | - | 14 W/m² | - |
| 1777850820 | 10° C | 43% | 1007.9 hPa | 0 mm | - | 16 W/m² | - |
| 1777850517 | 10.56° C | 44% | 1007.8 hPa | 0 mm | - | 23 W/m² | - |
| 1777850215 | 10.56° C | 44% | 1007.8 hPa | 0 mm | - | 33 W/m² | - |
| 1777849911 | 10.56° C | 43% | 1007.9 hPa | 0 mm | - | 44 W/m² | - |
| 1777849608 | 10.56° C | 45% | 1007.8 hPa | 0 mm | - | 52 W/m² | - |
| 1777849305 | 10.56° C | 44% | 1007.9 hPa | 0 mm | - | 54 W/m² | - |
| 1777849002 | 11.11° C | 41% | 1007.8 hPa | 0 mm | - | 58 W/m² | - |
| 1777848702 | 10.56° C | 43% | 1008 hPa | 0 mm | - | 53 W/m² | - |
| 1777848400 | 10.56° C | 43% | 1007.9 hPa | 0 mm | - | 60 W/m² | - |
* Rain latest hour (hover to see other rain measurements)
** Current wind speed in m/s (hover to see current wind gust speed)